DW5513 Weather Reports


Display with metric or nautical units.
time (UTC)temp
F
wind
direction
speed
MPH
gust
MPH
rain 1hr
in
rain 24hr
in
rain mn
in
humidity
%
barometer
mb
20260902200026 69 195 0.0 4.0 0.00 0.01 0.01 87 1017.3
20260902194521 69 70 1.0 5.0 0.00 0.01 0.01 87 1017.4
20260902193016 69 244 1.0 5.0 0.00 0.01 0.01 88 1017.7
20260902191516 69 125 0.0 5.0 0.00 0.01 0.01 87 1017.4
20260902190027 69 233 0.0 3.0 0.00 0.01 0.01 88 1017.5
20260902184516 69 166 1.0 3.0 0.00 0.01 0.01 89 1017.5
20260902183012 68 141 0.0 3.0 0.00 0.01 0.01 89 1017.7
20260902181508 67 221 0.0 3.0 0.00 0.01 0.01 92 1018.1
20260902180008 65 31 2.0 5.0 0.01 0.01 0.01 93 1017.9
20260902174505 64 37 0.0 5.0 0.01 0.01 0.01 96 1018.0
20260902173006 63 71 1.0 7.0 0.01 0.01 0.01 95 1018.1
20260902171504 63 110 0.0 6.0 0.01 0.01 0.01 95 1018.7
20260902170006 63 347 0.0 2.0 0.00 0.00 0.00 95 1018.5
20260902164502 63 136 0.0 6.0 0.00 0.00 0.00 95 1017.9
20260902163002 64 83 1.0 3.0 0.00 0.00 0.00 94 1018.6
20260902161505 64 154 0.0 3.0 0.00 0.00 0.00 94 1018.4
20260902160107 64 233 0.0 2.0 0.00 0.00 0.00 94 1018.7
20260902154605 64 61 0.0 3.0 0.00 0.00 0.00 94 1019.0
20260902153100 64 85 3.0 6.0 0.00 0.00 0.00 94 1018.5
20260902151559 64 153 0.0 6.0 0.00 0.00 0.00 94 1018.5
20260902150059 64 139 0.0 6.0 0.00 0.00 0.00 94 1018.9
20260902144558 64 136 1.0 3.0 0.00 0.04 0.00 94 1019.1
20260902143058 64 134 0.0 1.0 0.00 0.04 0.00 94 1019.1
20260902141601 64 130 0.0 3.0 0.00 0.04 0.00 94 1018.9
20260902134556 64 169 1.0 4.0 0.00 0.05 0.00 94 1018.8
20260902133056 64 243 0.0 3.0 0.00 0.05 0.00 94 1018.8
20260902131604 64 107 0.0 3.0 0.00 0.05 0.00 95 1018.7
20260902130053 64 81 0.0 2.0 0.00 0.05 0.00 94 1019.1
20260902124559 63 160 0.0 1.0 0.00 0.07 0.00 95 1019.1
20260902123052 63 53 0.0 2.0 0.00 0.07 0.00 95 1018.7
20260902121550 63 79 0.0 1.0 0.00 0.07 0.00 95 1018.9
20260902120148 63 113 0.0 1.0 0.00 0.07 0.00 95 1018.6
20260902114547 63 49 0.0 2.0 0.00 0.07 0.00 95 1018.6
20260902113057 0 0.0 0.0 0.00 0.07 0.00 1018.4
20260902111550 0 0.0 0.0 0.00 0.07 0.00 1018.3
20260902110038 0 0.0 0.0 0.00 0.07 0.00 1018.3
20260902104540 0 0.0 0.0 0.00 0.07 0.00 1018.8
20260902103026 0 0.0 0.0 0.00 0.07 0.00 1018.7
20260902101522 0 0.0 0.0 0.00 0.07 0.00 1018.7
20260902100029 0 141 0.0 1.0 0.00 0.07 0.00 94 1018.7
20260902094519 64 141 0.0 1.0 0.00 0.21 0.00 94 1018.4
20260902093012 64 164 0.0 0.0 0.00 0.21 0.00 94 1018.3
20260902091512 64 164 0.0 1.0 0.00 0.21 0.00 93 1018.3
20260902090009 64 88 0.0 2.0 0.00 0.21 0.00 93 1018.2
20260902084509 65 48 0.0 3.0 0.00 0.40 0.00 93 1018.1
20260902083010 65 164 0.0 3.0 0.00 0.40 0.00 93 1018.0
20260902081514 65 53 0.0 1.0 0.00 0.40 0.00 93 1018.0
20260902080007 65 52 0.0 1.0 0.00 0.40 0.00 93 1017.7
20260902074505 65 139 0.0 1.0 0.00 0.52 0.00 94 1017.8
20260902073005 65 49 0.0 4.0 0.00 0.52 0.00 93 1017.7
20260902071505 66 147 0.0 5.0 0.00 0.52 0.00 94 1017.7
20260902070104 66 162 0.0 3.0 0.00 0.52 0.00 94 1017.8
20260902064606 66 148 0.0 1.0 0.00 0.52 0.00 94 1017.8
20260902063058 67 177 0.0 1.0 0.00 0.52 0.00 95 1017.9
20260902061621 67 118 0.0 0.0 0.00 0.52 0.00 95 1017.9
20260902060058 67 117 0.0 0.0 0.00 0.52 0.00 95 1017.9
20260902054601 67 116 0.0 1.0 0.00 0.52 0.00 95 1017.8
20260902053056 67 145 0.0 1.0 0.00 0.52 0.00 95 1017.6
20260902051556 67 145 0.0 0.0 0.00 0.52 0.00 95 1017.5
20260902044550 67 146 0.0 0.0 0.00 0.52 0.00 96 1017.5
20260902043051 66 146 0.0 0.0 0.00 0.52 0.00 96 1017.3
20260902041559 67 146 0.0 0.0 0.00 0.52 0.00 97 1017.1
20260902040045 67 146 0.0 0.0 0.00 0.52 0.00 97 1017.0
20260902034551 66 146 0.0 1.0 0.00 0.52 0.52 97 1016.8
20260902033052 66 169 0.0 0.0 0.00 0.52 0.52 97 1016.9
20260902031542 66 169 0.0 0.0 0.00 0.52 0.52 97 1016.8
20260902030041 66 169 0.0 0.0 0.00 0.52 0.52 97 1016.9
20260902024544 66 169 0.0 0.0 0.00 0.53 0.52 97 1016.9
20260902023041 66 169 0.0 0.0 0.00 0.53 0.52 97 1016.9
20260902021553 67 169 0.0 0.0 0.00 0.53 0.52 96 1016.9
20260902020040 67 169 0.0 0.0 0.00 0.53 0.52 96 1017.0
20260902014541 67 169 0.0 0.0 0.00 0.53 0.52 96 1017.0
20260902013039 67 169 0.0 0.0 0.00 0.53 0.52 96 1017.1
20260902011541 67 169 0.0 0.0 0.00 0.53 0.52 96 1016.9
20260902010054 67 169 0.0 0.0 0.00 0.53 0.52 96 1016.6
20260902004543 67 169 0.0 0.0 0.00 0.53 0.52 95 1016.3
20260902003037 67 161 0.0 0.0 0.00 0.53 0.52 95 1016.2
20260902001537 68 161 0.0 0.0 0.00 0.53 0.52 95 1016.1
20260902000048 68 161 0.0 0.0 0.00 0.53 0.52 94 1015.9
20260901234602 68 160 0.0 0.0 0.00 0.53 0.52 94 1015.8
20260901233036 68 161 0.0 0.0 0.00 0.53 0.52 93 1015.9
20260901231546 69 160 0.0 1.0 0.00 0.53 0.52 93 1015.8
20260901230043 69 176 0.0 0.0 0.00 0.53 0.52 92 1015.8
20260901224537 69 160 0.0 3.0 0.00 0.53 0.52 92 1015.7
20260901223047 69 264 0.0 2.0 0.00 0.53 0.52 92 1015.7
20260901221535 69 136 2.0 6.0 0.00 0.53 0.52 92 1015.6
20260901220035 70 239 0.0 3.0 0.00 0.53 0.52 92 1015.5
20260901214531 70 174 0.0 2.0 0.00 0.53 0.52 92 1015.5
20260901213030 70 139 0.0 2.0 0.00 0.53 0.52 92 1015.8
20260901211541 70 167 0.0 2.0 0.00 0.53 0.52 92 1015.7
20260901210028 70 173 0.0 5.0 0.00 0.53 0.52 93 1015.4
20260901204540 70 179 1.0 3.0 0.00 0.53 0.52 94 1015.3
20260901203028 69 240 1.0 4.0 0.00 0.53 0.52 94 1015.2
20260901201526 70 162 1.0 3.0 0.00 0.53 0.52 94 1015.3